Regional Weather Roundup
Issued by NWS Grand Forks, ND

Home | Current Version | Previous Version | Graphics & Text | Print | Product List | Glossary On
Versions: 1 2 3 4 5 6 7 8 9 10 11 12 13 14 15 16 17 18 19 20 21 22 23 24 25 26 27 28 29 30 31 32 33 34 35 36 37 38 39 40 41 42 43 44 45 46 47 48 49 50
000
ASUS43 KFGF 202310
RWRFGF
PRAIRIE TO PINES  WEATHER ROUNDUP
NATIONAL WEATHER SERVICE EASTERN NORTH DAKOTA/GRAND FORKS ND
600 PM CDT SUN APR 20 2014

 **SATELLITE DATA USED TO AUGMENT SKY COVER AT AUTOMATED STATIONS**
 *****  WEATHER ACROSS EASTERN NORTH DAKOTA  *****

CITY           SKY/WX    TMP DP  RH WIND       PRES   REMARKS
GRAND FORKS    CLOUDY    70  36  28 S10       29.86F
GRAND FRKS AFB CLOUDY    71  37  29 S12       29.87F
GRAND FRKS NWS   N/A     68 N/A N/A S7          N/A
DEVILS LAKE    CLOUDY    64  30  27 SW13      29.83S
FARGO          MOSUNNY   74  30  19 SW10      29.89F
WAHPETON ARPT  CLEAR     73  25  16 SE9       29.91F
$$

 ***** WEATHER ACROSS CENTRAL AND WESTERN NORTH DAKOTA  *****

CITY           SKY/WX    TMP DP  RH WIND       PRES   REMARKS
BISMARCK       PTSUNNY   75  32  20 NW24G35   29.87R
MINOT          MOSUNNY   65  30  27 W21       29.86R
JAMESTOWN      CLOUDY    74  31  20 S14G22    29.85F
MINOT AFB      MOSUNNY   65  36  35 NW18G25   29.85R
GARRISON         N/A     66  28  24 W21G32    29.89R
WILLISTON      SUNNY     66  26  22 W26G39    29.92R
DICKINSON      MOSUNNY   66  24  20 NW23G36   29.95R
HETTINGER      MOSUNNY   67  24  19 NW20G32   29.97R
$$

 *****  OTHER AIRPORT OBSERVATIONS IN OUR AREA  *****

CITY           SKY/WX    TMP DP  RH WIND       PRES   REMARKS
WALHALLA         N/A     61  46  59 SE15      29.83F
GRAFTON AIRPOR FAIR      66  46  48 SE14      29.85F
VALLEY CITY AR FAIR      72  32  23 S12       29.88F
CANDO          FAIR      73  32  21 S18G28    29.79F
CAVALIER APRT  FAIR      64  46  52 SE9       29.84F
GWINNER        PTCLDY    75  34  22 SE7       29.90S
SHEYENNE NWR     N/A     76  32  20 S10       29.95
ROLLA          MOCLDY    66  36  32 SW16      29.78F
 ***** THE ABOVE OBSERVATIONS ARE NON NWS ARE NOT QUALITY
       CONTROLLED AND MAY MIS-REPORT RAIN FOR SNOW...
$$

  *****  WEATHER ACROSS NORTHERN MINNESOTA  *****

CITY           SKY/WX    TMP DP  RH WIND       PRES   REMARKS
FLAG ISLAND    CLOUDY    50  34  53 SE3       29.95S
WARROAD        PTSUNNY   50  39  66 E8        29.96F
ROSEAU         PTSUNNY   63  43  48 S9        29.93F HAZE
HALLOCK        CLOUDY    64  48  55 SE12      29.87F
THF RVR FALLS  PTSUNNY   66  37  34 S10       29.92F
BAUDETTE       CLOUDY    62  38  40 E5        29.95F
WASKISH        PTSUNNY   64  36  34 CALM      29.96F
CROOKSTON      PTSUNNY   70  37  30 S9        29.90F
$$
  *****  WEATHER ACROSS CENTRAL AND WEST MINNESOTA  *****

CITY           SKY/WX    TMP DP  RH WIND       PRES   REMARKS
FOSSTON        PTSUNNY   70  34  26 S9        29.94F
BEMIDJI        MOSUNNY   69  26  20 W7        29.94S
PARK RAPIDS    SUNNY     70  25  18 W7        29.94F
ELBOW LAKE     FAIR      72  32  23 S5        29.93S
WADENA         SUNNY     72  36  26 SE3       29.94F
DETROIT LAKES  MOSUNNY   70  30  23 SW6       29.95S
MOORHEAD       NOT AVBL
FERGUS FALLS   SUNNY     73  23  15 S7        29.89S
MORRIS MN      MOSUNNY   75  34  22 SE7       29.93S
STAPLES        SUNNY     70  27  19 S3        29.95F
$$
  *****  WEATHER ELSEWHERE ACROSS MINNESOTA  *****

CITY           SKY/WX    TMP DP  RH WIND       PRES   REMARKS
DULUTH         SUNNY     65  28  24 N6        29.99S
INTRNTL FALLS  MOSUNNY   59  35  40 NE6       29.97F
ELY            MOSUNNY   61  28  29 W7        29.99F
CLOQUET        SUNNY     66  21  18 CALM      29.98F
WHEATON        SUNNY     77  36  22 S7        29.94S
BRAINERD       SUNNY     74  30  19 E6        29.96S
HIBBING        SUNNY     67  29  24 NW7       29.98S
ALEXANDRIA     PTSUNNY   71  33  24 S6        29.96S
SAINT CLOUD    SUNNY     74  29  19 CALM      29.95F
MINNEAPOLIS    MOSUNNY   72  45  37 S6        29.95S
$$

  *****  WEATHER ACROSS SOUTH DAKOTA  *****

CITY           SKY/WX    TMP DP  RH WIND       PRES   REMARKS
SIOUX FALLS    MOSUNNY   78  48  34 S7        29.86F
BROOKINGS      NOT AVBL
WATERTOWN      SUNNY     73  33  23 SE12      29.91F
HURON          SUNNY     80  38  22 S8        29.84F
SISSETON         N/A     74  31  20 S16       29.90F
ABERDEEN       MOSUNNY   76  28  17 S10       29.87F
MITCHELL       SUNNY     82  40  22 S7        29.85S
PIERRE         MOSUNNY   78  45  30 SE3       29.82S
MOBRIDGE       PTSUNNY   76  33  21 S6        29.85S
RAPID CITY     PTSUNNY   67  31  26 N24G36    29.98R
$$

  *****  SOME WEATHER IN NEARBY STATES *****

CITY           SKY/WX    TMP DP  RH WIND       PRES   REMARKS
GLASGOW MT     MOSUNNY   64  25  22 W25G35    29.99R
GREAT FALLS MT SUNNY     59  13  16 NW13G25   30.11S
CHEYENNE WY    CLOUDY    66  26  22 NW14      30.06S
SCOTTSBLUFF NE MOSUNNY   79  30  16 NW15G22   29.94S
OMAHA NE       CLOUDY    80  50  34 SW20G31   29.89S
DES MOINES IA  PTSUNNY   81  53  37 S18G24    29.94S
DAVENPORT IA   PTSUNNY   79  43  27 S12       30.02F
CHICAGO IL     PTSUNNY   77  39  25 S12       30.05F
EAU CLAIRE WI  PTSUNNY   65  54  67 S13       29.98S
LA CROSSE WI   CLOUDY    61  54  77 CALM      30.00F
$$

  *****  SOME NATIONAL WEATHER *****

CITY           SKY/WX    TMP DP  RH WIND       PRES   REMARKS
LA GUARDIA NY  CLEAR     51  23  33 SE8       30.40F
RALEIGH NC     CLOUDY    63  43  48 NE14      30.21S
ATLANTA GA     MOSUNNY   73  42  32 E9        30.14S
NEW ORLEANS LA MOSUNNY   81  51  35 NE6       30.09F
OKLAHOMA CITY  CLOUDY    66  55  67 S13       30.03F
ALBUQUERQUE NM PTSUNNY   74  28  18 NW20      30.04F
SALT LAKE CITY PTSUNNY   69  23  17 NW9       30.13S
LOS ANGELES CA MOSUNNY   67  55  65 W14       30.03F
BOISE ID       SUNNY     64  19  17 NW8       30.21F
SEATTLE WA     PTSUNNY   59  38  45 W9        30.22S
$$

*** WEATHER ACROSS MANITOBA...SASKATCHEWAN AND ONTARIO ***
                ***ONTARIO***

CITY           SKY/WX    TMP DP  RH WIND       PRES   REMARKS
GERALDTON      MOSUNNY   50  32  50 W12       29.94S
THUNDER BAY    PTSUNNY   61  32  33 W10       29.96S
SIOUX LOOKOUT  PTSUNNY   48  27  43 NW6       29.97F
TORONTO        PTSUNNY   50  28  43 SE8       30.20F
BIG TROUT LK   CLOUDY    36  30  80 NW10G18   29.90R
PICKLE LAKE    PTSUNNY   41  27  56 NW7G17    29.95S
DRYDEN         SUNNY     48  30  49 W10       29.98S
KENORA         CLOUDY    48  32  53 S5        29.97F
$$
                *** MANITOBA***

CITY           SKY/WX    TMP DP  RH WIND       PRES   REMARKS
BRANDON        LGT RAIN  46  43  87 NE21G32   29.80F
DAUPHIN        PTSUNNY   41  34  75 NE13      29.92R
ISLAND LAKE    NOT AVBL
PILOT MOUND      N/A     68  37  32 S21G28      N/A
THE PAS        PTSUNNY   41  28  60 S6        29.98R
THOMPSON       PTSUNNY   37  30  75 SE2       29.98S
WINNIPEG       PTSUNNY   54  39  58 E14       29.90F
LYNN LAKE      SUNNY     41  21  45 N3        29.95S
CHURCHILL      PTSUNNY   23  19  86 N6        30.05R WCI  16
GILLAM         MOSUNNY   36  28  75 N5        29.98
$$
                ***SASKATCHEWAN***

CITY           SKY/WX    TMP DP  RH WIND       PRES   REMARKS
ESTEVAN        MOSUNNY   59  39  47 NW20G29   29.89R
KINDERSLEY     PTSUNNY   50  36  57 NW14G24   29.95R
LLOYDMINSTER   LGT RAIN  43  39  87 NW7       29.98R
PRINCE ALBERT  CLOUDY    41  28  60 SW3       29.98R
REGINA         LGT RAIN  50  41  71 W5        29.86R
YORKTON        LGT RAIN  37  34  87 N6        29.90S
N. BATTLEFORD  CLOUDY    41  37  87 E7        30.00R
LA RONGE       PTSUNNY   43  25  49 N3        29.96R
SASKATOON      LGT RAIN  37  34  87 NE9       29.97R
SWIFT CURRENT  PTSUNNY   52  36  54 NW37G46   29.91R
$$
NOTE: THESE ARE AUTOMATED STATIONS WITH LIMITED QUALITY CONTROL
      "FAIR" INDICATES FEW OR NO CLOUDS BELOW 12,000 FEET WITH NO
      SIGNIFICANT WEATHER AND/OR OBSTRUCTIONS TO VISIBILITY.
      SKY/WX - SKY CONDITION AND SIGNIFICANT WEATHER.
      TMP - AIR TEMPERATURE.    DP   - DEWPOINT TEMPERATURE.
      RH  - RELATIVE HUMIDITY.  PRES - PRESSURE.
      HX  - HEAT INDEX.         WCI  - WIND CHILL INDEX.
$



USA.gov is the U.S. government's official web portal to all federal, state and local government web resources and services.